Theta_e
308 308 308 308 307 306 305 305 305 306 306 306 306 307 309 308 309 310 312 313 315 317 318 318 318 321 322 324 326 325 329 332 334 338 338 337 339 337 341 343 341 344 341 337 334 337 337 339 338 337 337 338 342 345
308 308 307 307 305 304 305 305 305 305 306 306 307 308 308 308 308 309 311 313 314 315 316 315 315 315 317 319 320 322 326 330 337 344 344 346 348 343 351 348 344 344 345 344 341 342 342 339 339 337 333 340 341 347
305 305 305 304 305 305 305 306 306 306 306 306 308 309 309 309 309 309 311 312 313 315 316 317 318 316 317 318 318 321 326 325 324 326 339 343 352 352 357 352 347 347 341 344 343 345 341 338 336 335 335 336 340 346
307 306 306 306 306 306 306 306 306 306 306 307 308 309 309 310 310 309 310 311 314 315 316 318 317 316 318 318 318 318 318 319 319 322 333 339 341 344 349 347 349 345 342 343 343 344 343 342 338 334 338 345 345 345
308 308 308 308 308 308 307 307 307 306 307 307 308 309 309 310 310 310 310 311 313 315 317 316 313 315 317 319 320 319 318 317 318 323 333 336 334 338 344 345 348 343 343 340 343 341 339 341 340 342 339 344 346 347
309 308 309 309 309 309 309 308 308 308 308 308 309 310 310 310 310 310 313 312 311 314 314 317 315 316 318 319 318 320 319 318 318 322 328 328 326 328 343 349 345 343 339 338 340 337 341 342 342 338 335 345 346 346
309 309 308 308 308 307 309 309 309 309 309 310 310 310 310 310 310 311 313 312 312 313 314 316 318 318 316 319 320 319 319 320 319 319 321 324 324 327 339 345 345 341 339 335 333 341 340 337 338 337 343 345 348 356
309 308 307 307 306 307 307 308 310 309 309 309 309 309 310 309 310 310 310 311 312 313 314 316 318 320 318 320 322 320 323 322 322 321 322 321 324 328 337 343 343 341 336 333 332 336 340 337 338 340 345 351 354 354
309 307 307 307 307 306 307 308 309 308 309 307 308 310 310 310 310 311 311 311 312 314 317 317 318 325 322 321 321 321 321 325 323 322 321 325 326 334 339 339 340 342 343 340 338 337 336 337 338 337 350 351 352 352
309 308 308 308 308 306 307 307 307 307 308 308 309 309 310 309 310 311 310 313 314 314 313 315 315 319 319 327 325 324 324 326 330 325 326 326 325 328 331 336 342 342 341 340 340 337 335 338 341 349 350 349 350 352
310 310 310 309 308 308 306 306 306 307 308 308 309 310 310 310 311 312 315 316 316 317 315 315 315 317 317 325 330 330 330 329 329 328 328 331 332 328 327 327 331 338 344 345 344 344 341 341 348 348 349 349 350 349
310 310 309 307 308 308 308 306 308 308 309 309 310 311 310 312 313 314 316 317 317 317 317 317 317 316 318 325 331 333 335 336 333 329 330 330 331 336 330 329 329 334 342 343 344 345 344 345 343 348 348 348 348 349
309 309 309 307 309 309 309 310 309 309 309 309 310 309 312 313 315 315 317 317 318 318 319 321 321 320 319 322 331 332 333 336 332 334 330 330 329 334 339 333 332 343 341 341 344 342 339 339 337 344 346 346 346 346
309 309 309 308 309 310 310 310 309 309 309 311 312 316 314 316 316 316 316 317 316 317 318 321 325 322 321 328 330 333 334 332 336 333 331 332 338 334 342 346 340 342 340 339 340 336 335 337 335 337 342 343 344 345
309 310 309 308 309 309 309 308 308 308 309 312 312 316 315 314 315 316 317 319 320 322 323 325 326 327 322 328 332 331 333 331 329 332 334 344 349 342 356 348 343 339 337 338 338 336 336 336 336 339 342 343 343 344
308 309 309 309 308 309 308 308 308 308 310 313 314 316 316 320 318 320 321 319 322 321 325 325 326 327 327 330 328 330 328 329 333 345 344 346 349 351 349 347 342 337 336 333 332 334 337 338 339 340 340 342 343 344
308 309 310 309 308 308 308 308 309 311 311 314 316 316 316 317 318 322 322 323 322 324 326 325 326 327 329 330 327 328 327 336 340 338 338 345 347 350 345 341 335 336 334 334 333 333 338 340 339 339 340 341 341 342
308 309 310 310 308 307 308 307 310 312 314 314 315 315 316 320 320 322 321 323 324 322 325 327 326 328 329 328 327 327 340 341 338 339 342 345 346 346 343 339 335 336 335 336 337 338 338 339 338 338 339 340 341 338
309 309 309 310 308 308 310 311 310 313 312 314 315 315 316 316 318 320 323 323 323 323 325 327 329 330 329 333 334 334 335 337 337 336 337 339 343 343 340 336 336 337 336 336 335 335 336 338 338 339 341 338 338 338
308 308 309 310 309 309 309 310 309 311 313 315 315 317 321 321 323 325 324 324 325 325 327 327 328 332 331 334 331 331 332 332 332 333 334 335 339 342 338 340 336 337 337 337 337 337 338 339 338 340 338 338 337 337
309 309 309 310 309 309 310 311 311 311 313 315 316 317 321 324 325 326 326 326 326 326 328 329 330 330 330 330 329 328 329 330 331 331 332 333 332 330 338 338 337 339 339 339 339 338 338 338 338 338 338 337 336 336
309 309 309 309 309 309 309 309 312 313 314 317 317 320 321 324 324 323 320 324 327 327 327 327 326 326 326 327 328 327 327 327 327 328 331 330 332 336 338 339 339 339 338 338 338 337 334 334 337 337 338 336 336 334
310 310 309 308 310 310 311 309 311 313 315 319 320 321 321 322 321 319 324 323 322 323 322 322 323 323 323 324 325 326 327 327 328 331 329 331 332 334 336 338 337 339 336 336 335 334 335 336 337 336 334 332 331 331
310 311 311 310 308 312 309 313 312 314 319 320 321 322 321 321 319 322 323 322 321 321 322 325 326 327 326 327 328 329 329 328 326 325 329 334 334 334 334 334 338 335 334 335 335 332 333 333 334 334 332 330 330 330
317 317 314 311 312 316 318 319 319 320 322 321 322 322 321 320 322 323 322 322 321 322 324 325 325 325 328 329 328 327 326 326 330 334 332 332 333 332 332 333 334 334 334 334 334 333 332 332 332 332 331 331 331 330
323 328 325 328 324 324 330 328 323 325 324 324 323 322 321 323 323 323 322 321 319 319 320 322 322 324 328 327 329 329 330 331 332 331 329 330 332 332 332 332 332 332 332 334 334 333 332 331 331 330 331 330 329 329
325 327 328 327 328 328 330 328 327 329 328 326 324 323 324 325 325 322 319 318 320 320 320 320 320 321 325 326 329 330 330 329 330 331 332 332 331 331 331 332 331 331 331 331 330 331 331 330 330 330 330 329 328 328
327 327 328 327 326 325 327 327 327 328 330 327 326 328 328 326 325 321 320 320 320 318 318 318 318 319 321 326 325 326 328 328 328 328 327 328 328 328 327 327 327 328 330 330 330 330 330 330 331 331 330 330 330 329
327 327 326 326 325 325 326 326 327 326 326 327 327 325 322 322 320 318 317 317 317 317 317 321 323 324 325 325 321 319 318 319 322 324 323 322 322 324 326 326 326 326 326 326 326 326 324 327 328 329 329 325 325 327
326 324 325 325 326 327 326 324 325 324 323 323 323 324 323 322 320 319 319 320 322 320 321 321 321 321 320 320 317 316 314 313 312 316 320 319 318 316 316 318 318 321 323 323 322 322 322 321 320 320 321 321 322 325
325 326 326 325 325 325 324 324 323 323 324 324 324 324 324 325 322 321 319 318 319 319 318 318 316 315 315 313 315 313 313 311 310 310 311 311 310 310 310 311 311 311 312 313 314 319 320 319 320 319 318 319 319 318
326 325 323 325 325 325 325 326 327 327 325 325 325 323 323 323 325 325 321 322 321 320 317 316 314 314 314 313 313 312 311 309 308 308 308 306 306 307 308 308 309 310 310 311 311 312 312 312 313 314 315 315 316 317
322 323 323 326 325 325 327 325 325 326 326 326 325 324 323 323 323 323 320 320 320 320 318 316 314 314 315 315 314 313 312 312 312 312 312 312 312 312 312 309 305 306 307 308 309 309 310 311 312 313 313 314 313 313
Wind_Speed
19 19 20 19 19 21 20 20 19 19 18 17 16 14 12 11 10 8 14 13 11 6 14 17 17 14 12 6 5 11 8 4 4 2 3 5 5 6 4 4 5 2 2 4 2 3 6 7 4 5 7 4 6 6
20 21 20 21 22 21 21 21 20 19 18 17 15 14 12 11 10 7 9 9 17 6 11 31 33 32 26 15 7 5 6 7 4 4 5 4 4 3 1 2 5 3 5 3 3 1 8 17 1 5 3 7 6 5
22 23 24 24 22 21 21 21 20 18 18 16 16 15 14 12 11 10 12 14 11 3 11 14 11 27 25 26 19 3 3 4 6 6 4 3 4 2 3 2 3 6 3 4 5 7 11 18 12 8 6 8 12 9
21 21 22 21 22 23 22 20 19 18 17 16 16 15 15 12 12 13 12 13 7 5 4 6 15 9 15 19 28 27 19 18 8 6 5 3 3 2 3 2 2 3 7 3 3 8 4 11 13 4 4 11 7 10
20 21 22 21 21 21 21 20 19 17 17 17 16 15 14 13 11 11 13 16 14 5 3 8 31 29 18 19 23 26 19 9 3 3 3 4 4 4 3 1 3 4 5 2 2 4 1 8 21 18 13 10 8 8
17 18 19 20 20 19 18 18 17 15 16 16 14 13 10 9 9 5 2 12 18 13 3 4 10 12 20 20 16 8 11 6 4 2 3 4 9 5 3 3 2 3 14 13 3 8 4 17 14 23 26 14 8 9
14 14 13 13 14 15 15 17 16 14 14 14 11 9 9 9 14 4 2 3 1 6 2 4 5 5 21 15 9 5 8 3 4 4 5 6 6 5 3 5 7 2 6 4 11 8 7 17 12 16 18 10 17 20
13 11 12 14 14 15 14 13 12 12 11 10 8 6 7 10 11 11 15 4 1 4 3 4 5 5 12 5 5 4 3 5 4 4 2 6 3 3 4 5 9 8 8 9 10 8 4 20 24 24 21 19 19 16
12 12 13 14 15 11 8 6 5 3 6 7 5 7 6 5 4 3 7 9 2 1 2 3 3 4 6 5 4 3 3 4 4 5 7 4 6 7 7 7 12 11 8 9 7 21 17 22 39 41 15 17 19 15
15 15 15 14 12 8 4 2 4 5 5 9 7 2 1 4 7 5 2 1 1 4 2 4 3 5 5 4 4 5 4 4 4 6 4 9 11 13 12 10 8 9 18 15 16 16 24 26 25 14 18 16 15 14
14 15 14 11 12 11 7 7 7 7 10 5 3 2 2 12 5 2 3 4 4 4 5 5 10 8 4 4 3 2 3 2 3 4 7 4 5 17 20 20 15 8 10 4 7 10 6 14 13 18 18 18 16 16
15 15 12 11 13 7 9 10 12 14 8 8 6 3 5 2 2 2 3 3 5 4 5 5 6 7 3 3 1 3 2 3 5 4 6 5 3 8 16 19 20 10 4 14 10 13 14 20 32 26 24 19 21 25
12 13 11 11 9 4 4 9 17 10 11 5 2 2 1 4 4 5 6 4 4 4 4 4 4 4 4 3 3 3 3 5 9 4 7 4 7 8 9 12 16 11 15 13 12 15 22 25 43 21 21 28 26 21
11 9 10 7 5 3 13 17 11 12 2 1 2 4 4 5 6 6 7 6 6 4 8 3 4 4 4 5 3 3 4 2 3 4 5 5 7 12 6 9 11 16 16 14 10 13 19 25 16 32 29 18 23 19
12 10 6 3 3 11 10 8 11 2 1 2 3 4 8 8 9 3 7 5 5 5 1 2 3 3 4 3 3 4 4 5 7 6 3 6 10 5 7 9 16 19 17 18 16 14 17 27 18 11 9 7 23 23
13 7 9 8 9 11 10 8 3 2 3 3 5 7 7 4 6 2 3 6 4 2 3 2 1 4 2 3 5 7 4 3 3 3 4 5 9 5 4 8 14 15 17 17 16 20 25 30 29 28 11 10 10 19
10 5 3 9 11 11 9 2 2 4 4 4 5 7 9 7 7 3 1 3 1 1 3 1 2 4 4 4 7 4 10 3 3 4 4 6 6 4 5 10 8 9 13 16 24 26 24 26 28 29 14 22 16 18
8 9 6 12 16 13 5 5 3 3 6 6 7 7 7 4 4 3 3 1 2 2 2 4 2 5 4 7 8 8 2 1 2 3 4 6 8 5 5 11 10 11 9 16 25 28 30 29 19 16 32 33 25 24
19 12 7 16 22 7 5 6 5 3 5 6 6 8 7 8 7 5 3 3 8 5 1 3 5 4 4 3 5 7 6 5 4 6 4 7 7 6 10 14 9 13 9 12 16 14 17 19 18 20 22 26 19 20
10 12 10 15 18 3 2 2 2 4 4 3 6 7 5 6 4 3 4 4 3 2 4 5 4 2 2 4 5 5 6 6 6 7 7 7 13 12 9 17 9 11 18 20 18 19 16 14 19 21 23 22 19 17
8 9 11 17 8 3 2 2 4 3 4 4 4 3 4 3 3 1 2 2 1 3 3 3 3 3 5 4 5 5 6 4 5 4 5 7 7 15 11 27 33 30 16 12 9 12 16 9 17 20 26 23 22 22
7 14 8 5 2 3 3 5 3 4 2 4 3 2 3 2 2 2 3 2 2 1 2 4 5 5 6 6 4 7 10 12 12 13 10 9 5 6 6 18 11 9 9 12 14 8 11 15 16 19 20 22 29 25
12 9 5 3 2 5 4 1 3 3 3 2 2 2 2 1 2 3 2 1 3 1 5 6 9 11 9 17 18 17 15 13 8 4 8 10 11 13 10 14 25 9 4 10 23 18 18 23 22 22 25 23 25 24
9 8 6 6 6 4 3 4 3 3 3 3 2 2 1 1 1 1 2 2 2 4 6 9 7 7 8 8 7 7 10 7 6 14 14 9 3 5 14 7 13 16 22 22 26 25 17 12 13 20 21 22 22 22
3 5 5 5 5 4 7 6 4 4 3 4 2 2 2 2 2 2 2 2 3 6 5 6 4 4 6 3 4 6 13 13 7 5 9 12 9 15 15 9 16 22 28 27 18 19 23 18 17 20 19 19 17 19
4 5 4 5 5 5 2 5 8 6 3 3 1 1 1 2 1 2 2 3 2 3 4 5 5 5 5 2 3 4 7 18 17 7 9 18 16 13 6 5 3 9 16 19 23 22 18 16 20 20 14 16 17 16
4 3 4 3 2 5 2 2 4 3 5 4 3 3 2 1 2 2 3 2 2 4 6 13 10 6 4 4 8 4 7 17 18 14 22 17 19 21 18 10 4 10 17 20 21 22 19 16 16 16 16 17 17 18
3 3 7 6 4 4 5 4 5 4 2 4 3 2 3 3 2 2 3 10 14 11 15 22 25 18 17 15 13 14 13 15 20 21 23 24 20 20 19 15 14 16 14 13 12 10 9 8 10 10 17 18 17 17
3 3 3 7 4 2 3 4 4 4 3 2 2 3 2 3 3 3 8 17 18 14 12 10 14 11 6 1 15 20 20 14 7 8 9 7 7 13 14 13 13 13 13 12 10 9 10 9 8 9 14 16 18 19
1 2 4 8 8 4 3 2 2 7 6 6 5 4 3 3 6 11 10 7 6 8 4 9 11 11 10 12 14 20 22 23 22 13 7 8 12 19 18 13 13 9 9 11 9 8 6 5 4 4 7 8 8 20
2 3 5 5 5 5 4 3 6 3 4 5 5 5 3 1 1 3 4 6 10 7 8 11 17 17 16 18 13 11 9 20 23 27 23 23 20 17 13 10 9 9 9 9 9 5 10 10 10 9 8 9 9 13
3 2 3 4 4 5 5 4 4 4 4 4 3 3 2 1 4 3 15 2 4 8 10 17 15 13 16 17 19 20 16 15 17 17 16 15 14 13 15 19 16 13 12 11 8 7 9 9 9 10 10 10 9 9
2 2 2 4 2 2 3 2 3 4 4 4 2 3 4 7 5 4 12 12 13 13 15 15 13 12 13 13 13 12 13 13 12 13 12 12 11 12 13 11 7 9 11 11 12 13 13 14 11 9 9 8 11 13
Wind_Direction
288 289 291 288 288 289 287 284 282 285 288 286 288 281 283 279 274 292 283 291 284 285 291 283 300 305 320 338 351 328 321 333 358 258 195 245 262 270 279 350 172 206 17 279 308 273 288 204 337 122 182 225 343 99
293 291 290 288 289 287 285 283 282 281 281 282 279 276 279 274 264 273 280 297 327 267 282 303 290 279 275 286 311 322 289 301 350 3 11 334 322 323 141 266 328 355 154 183 95 232 322 324 167 298 293 114 263 119
293 290 289 289 288 285 283 280 280 276 276 276 273 272 270 268 263 251 274 296 318 275 285 251 251 254 245 244 244 279 288 42 1 344 299 286 284 38 25 277 267 193 190 107 50 3 27 330 309 334 128 212 240 148
298 294 291 288 286 283 280 277 275 272 272 269 269 267 265 266 255 249 249 274 287 277 272 280 347 330 280 273 225 230 254 294 303 315 298 293 298 94 246 261 240 301 34 139 114 74 312 316 286 192 305 214 179 134
301 299 296 295 288 283 281 276 271 269 268 266 263 265 267 260 251 247 251 262 262 240 302 304 309 292 274 268 220 215 229 250 272 293 283 276 290 327 229 43 268 144 191 153 91 92 270 261 282 305 317 261 142 117
309 308 306 295 295 287 280 277 272 266 264 262 256 262 258 246 227 206 270 244 234 240 282 301 325 278 272 230 242 237 206 214 216 234 258 250 259 271 251 287 347 66 79 47 61 338 289 269 278 278 298 225 128 119
317 321 321 318 314 316 288 275 266 264 263 269 250 241 235 214 193 191 230 329 165 199 243 281 271 232 222 235 202 209 221 191 192 221 234 265 292 329 263 278 296 104 128 143 114 73 294 287 261 262 260 128 104 99
316 316 324 327 323 315 296 295 264 244 257 252 218 212 202 197 210 246 239 355 162 205 252 274 276 271 168 203 182 182 190 192 218 223 247 215 244 255 262 221 246 99 53 355 57 127 168 272 293 288 264 112 106 106
321 314 317 320 328 325 314 335 152 189 170 147 159 163 157 195 177 259 240 254 341 224 277 260 280 330 331 203 150 140 185 206 210 207 222 233 220 220 217 237 276 157 175 198 187 168 196 227 277 281 140 119 116 119
319 316 317 315 317 320 299 223 171 159 160 151 149 135 195 207 150 145 114 212 247 192 224 258 284 271 327 333 189 150 174 225 208 209 191 227 232 250 261 268 250 265 182 202 238 208 230 235 246 147 134 128 122 120
337 330 324 320 318 295 256 211 187 180 168 157 171 233 306 156 140 192 205 217 192 222 209 231 215 235 284 256 296 307 176 224 245 226 192 231 194 223 238 258 264 270 288 267 18 12 72 236 160 135 120 107 105 107
341 340 338 331 330 320 227 220 196 187 180 170 151 99 134 196 188 224 208 219 213 242 222 199 219 190 243 224 325 295 314 257 238 198 195 222 254 194 208 223 248 244 326 72 67 47 22 41 333 128 117 114 114 116
327 344 338 339 343 331 208 177 166 186 159 155 85 69 254 170 207 211 198 205 230 208 236 209 199 181 200 273 259 231 240 246 316 239 263 262 220 223 207 210 229 107 103 95 94 83 46 43 340 32 102 107 108 109
318 317 336 348 28 93 145 145 150 148 153 104 171 204 228 206 223 207 228 211 221 269 289 13 308 175 192 187 229 248 215 256 280 269 266 254 239 211 196 206 157 121 116 109 103 107 96 77 353 345 359 76 104 104
325 295 277 260 191 174 151 155 166 133 99 234 204 234 224 237 281 266 256 276 21 341 202 17 292 264 182 219 208 253 219 218 208 239 241 353 326 211 157 122 134 132 133 122 124 117 109 111 146 82 354 45 107 115
328 301 249 219 196 203 185 171 185 260 283 237 227 265 272 318 289 46 17 315 325 2 310 119 300 287 220 210 227 226 234 242 243 52 9 345 360 45 50 120 136 148 149 147 138 139 139 141 143 135 128 105 123 131
311 240 212 191 189 183 166 177 241 218 240 239 241 246 258 270 283 339 207 245 179 236 211 155 183 253 194 219 232 251 248 291 16 6 338 344 355 319 134 116 124 145 147 148 149 152 146 146 141 134 137 141 134 138
253 301 257 176 174 173 197 215 264 254 249 247 263 277 289 279 269 249 231 198 183 196 252 227 190 255 229 235 227 243 87 306 313 328 5 356 321 316 117 126 152 149 151 148 147 154 151 155 156 159 154 151 149 140
265 268 234 197 172 175 189 206 203 259 254 280 276 277 277 277 278 280 270 223 193 189 264 238 242 239 251 3 354 8 4 16 341 336 344 305 319 310 131 119 135 135 172 168 159 163 156 160 154 146 132 136 136 131
253 224 208 193 172 146 197 247 237 278 278 320 304 285 294 275 293 288 259 263 198 175 186 226 236 269 322 349 7 8 355 350 343 338 335 346 354 322 147 144 225 211 187 186 171 165 166 148 150 144 145 140 137 146
121 166 158 171 176 229 286 250 218 233 264 261 312 313 272 279 265 256 268 327 190 212 236 247 326 24 20 358 332 321 289 279 280 296 313 314 337 328 287 171 186 190 173 160 158 164 169 152 162 163 155 152 156 162
125 132 131 141 109 164 253 242 252 308 268 283 298 240 284 317 323 7 330 252 249 286 4 346 334 324 292 281 284 281 282 290 288 287 273 294 294 298 276 223 189 174 161 155 154 156 169 157 153 159 151 150 154 154
122 134 103 107 183 196 267 218 227 226 248 243 231 251 249 289 331 322 268 273 270 299 339 305 290 287 274 281 283 281 273 267 265 266 283 261 254 266 285 200 162 200 135 97 106 101 102 127 129 128 131 132 141 147
144 165 170 166 193 209 203 211 220 248 217 233 231 231 214 264 320 243 266 272 275 302 294 290 279 284 287 278 275 260 254 230 255 260 261 246 168 111 69 282 187 169 142 123 109 108 101 101 138 141 141 141 144 146
193 194 179 190 192 233 201 175 206 218 243 205 226 200 219 175 249 255 257 265 303 299 310 325 311 282 280 298 291 277 272 244 242 191 134 102 71 106 99 263 127 123 130 116 116 128 148 183 192 147 150 155 156 153
253 204 199 352 159 213 193 160 186 205 209 195 200 122 186 234 249 290 272 300 291 287 305 322 316 321 48 51 1 350 18 28 87 101 102 92 83 88 88 51 29 76 139 153 148 152 161 151 127 137 143 141 152 164
302 344 324 296 332 307 352 5 140 173 180 193 162 183 218 62 336 311 283 265 269 281 298 289 286 297 291 296 270 188 96 77 73 103 124 146 143 135 153 153 151 114 102 116 125 128 134 137 144 154 160 171 185 191
280 309 350 354 10 20 10 2 359 357 15 119 160 60 47 26 312 253 234 244 234 254 278 284 283 270 270 298 66 92 134 111 101 92 83 80 78 85 93 97 85 95 109 114 125 139 150 177 190 178 176 191 196 206
302 38 41 15 22 5 29 11 344 5 340 79 71 74 137 213 232 231 254 256 262 256 267 275 292 286 299 315 72 58 52 61 104 110 112 118 120 110 117 126 133 129 123 112 110 113 90 126 158 194 192 194 199 202
227 197 85 43 43 49 344 49 43 90 88 90 111 127 157 204 240 262 269 338 250 268 318 55 59 69 57 70 73 59 47 41 33 36 83 71 57 51 45 46 43 93 150 163 186 177 169 167 178 204 217 234 215 202
266 188 135 100 84 111 129 143 136 126 124 116 115 116 122 205 350 6 346 331 327 307 23 71 59 54 63 44 84 79 60 42 41 47 60 59 59 49 32 16 8 12 10 4 4 177 203 217 223 223 231 244 256 273
279 215 102 91 123 169 175 154 147 149 166 152 136 149 191 121 70 23 24 300 239 358 50 73 65 53 66 78 72 72 74 72 67 65 63 59 50 43 27 23 29 27 17 7 345 312 297 290 291 291 305 312 294 289
48 333 332 95 335 64 78 10 354 47 73 78 89 145 112 75 61 46 49 46 38 51 78 79 83 79 75 92 92 90 91 90 88 87 79 72 64 53 36 13 10 16 3 357 347 348 349 4 8 3 352 1 11 4